Change the Weather History Date:

Thursday, December 13, 2012

  Actual Average (KTPA) Record (KTPA)
Temperature  
Mean Temperature 62 °F 64 °F  
Max Temperature 68 °F 72 °F 85 °F (1948)
Min Temperature 53 °F 55 °F 18 °F (1962)
Degree Days  
Heating Degree Days 4 4  
Month to date heating degree days 45  
Since 1 July heating degree days 89  
Cooling Degree Days 0 3  
Month to date cooling degree days 40  
Year to date cooling degree days 3570  
Growing Degree Days 12 (Base 50)    
Moisture  
Dew Point 56 °F    
Average Humidity 79    
Maximum Humidity 94    
Minimum Humidity 60    
Precipitation  
Precipitation 0.00 in 0.08 in 2.45 in (1997)
Month to date precipitation 0.98  
Year to date precipitation 44.81  
Sea Level Pressure  
Sea Level Pressure 30.15 in    
Wind  
Wind Speed 7 mph (NNE)    
Max Wind Speed 20 mph    
Max Gust Speed 30 mph    
Visibility 10 miles    
Events      
T = Trace of Precipitation, MM = Missing Value Source: NWS Daily Summary

Daily Weather History Graph

Daily Weather History Graph

Search for Another Location

Airport or City:

Trip Planner

Search our weather history database for the weather conditions in past years. The results will help you decide how hot, cold, wet, or windy it might be!

Date:

Astronomy

Dec. 13, 2012 Rise Set
Actual Time 7:12 AM EST 5:36 PM EST
Civil Twilight 6:46 AM EST 6:01 PM EST
Nautical Twilight 6:17 AM EST 6:31 PM EST
Astronomical Twilight 5:48 AM EST 6:59 PM EST
Moon 7:21 AM EST (12/13) 6:15 PM EST (12/13)
Length of Visible Light 11h 15m
Length of Day
10h 23m
New Moon, 0% of the Moon is Illuminated
Dec 13
New Moon
Dec 20
First Quarter
Dec 28
Full
Jan 4
Last Quarter
Jan 11
New

Hourly Weather History & Observations

Time (EST) Temp. Dew Point Humidity Pressure Visibility Wind Dir Wind Speed Gust Speed Precip Events Conditions
12:15 AM 68.0 °F 64.4 °F 88% 30.09 in 5.0 mi Calm Calm - N/A   Overcast
12:35 AM 68.0 °F 64.4 °F 88% 30.08 in 4.0 mi WNW 3.5 mph - N/A   Overcast
12:55 AM 68.0 °F 64.4 °F 88% 30.08 in 7.0 mi NW 3.5 mph - N/A   Overcast
1:15 AM 68.0 °F 64.4 °F 88% 30.08 in 10.0 mi NW 4.6 mph - N/A   Overcast
1:35 AM 68.0 °F 64.4 °F 88% 30.08 in 10.0 mi NW 3.5 mph - N/A   Mostly Cloudy
1:55 AM 68.0 °F 62.6 °F 83% 30.08 in 10.0 mi NW 4.6 mph - N/A   Mostly Cloudy
2:15 AM 66.2 °F 62.6 °F 88% 30.07 in 10.0 mi NNW 6.9 mph - N/A   Overcast
2:35 AM 66.2 °F 62.6 °F 88% 30.08 in 10.0 mi NNW 4.6 mph - N/A   Overcast
2:55 AM 66.2 °F 62.6 °F 88% 30.08 in 10.0 mi North 8.1 mph - N/A   Overcast
3:15 AM 66.2 °F 62.6 °F 88% 30.09 in 10.0 mi North 5.8 mph - N/A   Overcast
3:35 AM 66.2 °F 62.6 °F 88% 30.08 in 10.0 mi North 4.6 mph - N/A   Overcast
3:55 AM 64.4 °F 62.6 °F 94% 30.08 in 10.0 mi NNW 6.9 mph - N/A   Overcast
4:15 AM 64.4 °F 60.8 °F 88% 30.08 in 10.0 mi NNW 6.9 mph - N/A   Overcast
4:35 AM 64.4 °F 60.8 °F 88% 30.09 in 10.0 mi NNW 6.9 mph - N/A   Overcast
4:55 AM 64.4 °F 59.0 °F 83% 30.09 in 10.0 mi NNW 5.8 mph - N/A   Overcast
5:15 AM 62.6 °F 59.0 °F 88% 30.10 in 10.0 mi NNW 6.9 mph - N/A   Overcast
5:35 AM 62.6 °F 59.0 °F 88% 30.11 in 10.0 mi NNW 4.6 mph - N/A   Overcast
5:55 AM 62.6 °F 59.0 °F 88% 30.12 in 10.0 mi NNW 4.6 mph - N/A   Overcast
6:15 AM 62.6 °F 59.0 °F 88% 30.13 in 10.0 mi North 4.6 mph - N/A   Overcast
6:35 AM 62.6 °F 59.0 °F 88% 30.13 in 10.0 mi North 8.1 mph - N/A   Overcast
6:55 AM 62.6 °F 59.0 °F 88% 30.14 in 10.0 mi North 6.9 mph - N/A   Overcast
7:15 AM 62.6 °F 59.0 °F 88% 30.14 in 10.0 mi North 5.8 mph - N/A   Overcast
7:35 AM 62.6 °F 59.0 °F 88% 30.15 in 10.0 mi North 8.1 mph - N/A   Mostly Cloudy
7:55 AM 62.6 °F 59.0 °F 88% 30.16 in 10.0 mi NNE 5.8 mph - N/A   Mostly Cloudy
8:15 AM 62.6 °F 59.0 °F 88% 30.16 in 10.0 mi North 5.8 mph - N/A   Overcast
8:35 AM 62.6 °F 57.2 °F 82% 30.17 in 10.0 mi North 5.8 mph - N/A   Overcast
8:55 AM 62.6 °F 57.2 °F 82% 30.17 in 10.0 mi North 6.9 mph - N/A   Overcast
9:15 AM 64.4 °F 57.2 °F 77% 30.18 in 10.0 mi NNW 6.9 mph - N/A   Overcast
9:35 AM 64.4 °F 55.4 °F 73% 30.18 in 10.0 mi NNE 6.9 mph - N/A   Scattered Clouds
9:55 AM 66.2 °F 55.4 °F 68% 30.19 in 10.0 mi North 11.5 mph 16.1 mph N/A   Scattered Clouds
10:15 AM 68.0 °F 55.4 °F 64% 30.18 in 10.0 mi NNE 10.4 mph 17.3 mph N/A   Scattered Clouds
10:35 AM 68.0 °F 55.4 °F 64% 30.19 in 10.0 mi NNE 8.1 mph 16.1 mph N/A   Scattered Clouds
10:55 AM 66.2 °F 55.4 °F 68% 30.19 in 10.0 mi NNE 12.7 mph 16.1 mph N/A   Scattered Clouds
11:15 AM 68.0 °F 55.4 °F 64% 30.19 in 10.0 mi North 10.4 mph 17.3 mph N/A   Scattered Clouds
11:35 AM 66.2 °F 53.6 °F 64% 30.19 in 10.0 mi NNE 8.1 mph - N/A   Mostly Cloudy
11:55 AM 68.0 °F 53.6 °F 60% 30.18 in 10.0 mi NNE 6.9 mph - N/A   Mostly Cloudy
12:15 PM 68.0 °F 53.6 °F 60% 30.17 in 10.0 mi NE 8.1 mph 24.2 mph N/A   Mostly Cloudy
12:35 PM 68.0 °F 53.6 °F 60% 30.17 in 10.0 mi NNE 11.5 mph - N/A   Mostly Cloudy
12:55 PM 68.0 °F 53.6 °F 60% 30.17 in 10.0 mi NE 12.7 mph 29.9 mph N/A   Scattered Clouds
1:15 PM 68.0 °F 53.6 °F 60% 30.16 in 10.0 mi NE 11.5 mph 17.3 mph N/A   Mostly Cloudy
1:35 PM 68.0 °F 55.4 °F 64% 30.15 in 10.0 mi ENE 12.7 mph - N/A   Mostly Cloudy
1:55 PM 64.4 °F 55.4 °F 73% 30.15 in 10.0 mi NE 15.0 mph 19.6 mph N/A   Overcast
2:15 PM 62.6 °F 53.6 °F 72% 30.16 in 10.0 mi NE 12.7 mph 16.1 mph N/A   Overcast
2:35 PM 62.6 °F 53.6 °F 72% 30.15 in 10.0 mi NE 10.4 mph - N/A   Overcast
2:55 PM 62.6 °F 55.4 °F 77% 30.15 in 10.0 mi NE 12.7 mph - N/A   Overcast
3:15 PM 62.6 °F 53.6 °F 72% 30.15 in 10.0 mi NNE 10.4 mph - N/A   Overcast
3:35 PM 62.6 °F 53.6 °F 72% 30.15 in 10.0 mi NE 9.2 mph - N/A   Overcast
3:55 PM 62.6 °F 53.6 °F 72% 30.15 in 10.0 mi NE 13.8 mph - N/A   Overcast
4:15 PM 62.6 °F 53.6 °F 72% 30.15 in 10.0 mi NE 9.2 mph - N/A   Overcast
4:35 PM 62.6 °F 53.6 °F 72% 30.15 in 10.0 mi NE 10.4 mph - N/A   Overcast
4:55 PM 62.6 °F 53.6 °F 72% 30.15 in 10.0 mi NNE 6.9 mph - N/A   Overcast
5:35 PM 60.8 °F 53.6 °F 77% 30.16 in 10.0 mi NE 10.4 mph - N/A   Overcast
8:15 PM 57.2 °F 51.8 °F 82% 30.21 in 10.0 mi ENE 16.1 mph 24.2 mph N/A   Overcast
8:35 PM 55.4 °F 51.8 °F 88% 30.21 in 10.0 mi NE 19.6 mph 24.2 mph N/A   Overcast
8:55 PM 55.4 °F 51.8 °F 88% 30.21 in 10.0 mi NE 11.5 mph 17.3 mph N/A   Overcast
9:15 PM 55.4 °F 51.8 °F 88% 30.21 in 10.0 mi NNE 11.5 mph 19.6 mph N/A   Overcast
9:35 PM 55.4 °F 50.0 °F 82% 30.22 in 10.0 mi NE 13.8 mph - N/A   Overcast
9:55 PM 55.4 °F 51.8 °F 88% 30.21 in 10.0 mi NE 9.2 mph 16.1 mph N/A   Overcast
10:15 PM 55.4 °F 50.0 °F 82% 30.21 in 10.0 mi NE 13.8 mph 18.4 mph N/A   Scattered Clouds
10:35 PM 55.4 °F 50.0 °F 82% 30.21 in 10.0 mi NE 15.0 mph 18.4 mph N/A   Mostly Cloudy
10:55 PM 55.4 °F 50.0 °F 82% 30.21 in 10.0 mi NNE 16.1 mph 20.7 mph N/A   Overcast
11:15 PM 55.4 °F 50.0 °F 82% 30.20 in 10.0 mi NE 12.7 mph - N/A   Overcast
11:35 PM 55.4 °F 50.0 °F 82% 30.20 in 10.0 mi NNE 8.1 mph - N/A   Overcast
11:55 PM 53.6 °F 50.0 °F 88% 30.20 in 10.0 mi NNE 11.5 mph 19.6 mph N/A   Overcast